Weather in Karabanovo

Russia / Vladimir Oblast     56°18′47″N   38°42′12″E
temp.,
°C
wind,
m/s
gust,
m/s
humid.,
%
clouds,
%
prec.,
mm/h
press.,
hPa
HPBL,
m
3 march, wed
wed300:00−2nnw5129391 0.4 1010726
03:00−6nw5128861 0.4 1012495
06:00−6nw4129244 0.0 1014543
09:00−5nw4128562 0.0 1014870
12:00−2nw5108567 0.1 1013818
15:000wnw598683 0.2 10131039
18:00−1w41193100 0.2 1011833
21:00−1w51190100 0.3 10091030
4 march, thu
thu400:00−2wsw51294100 0.1 1005788
03:00+1wsw61395100 1.1 10021015
06:00+1w71497100 0.8 9981100
09:000nw81491100 2.1 9991135
12:000wnw6106884 0.0 10001211
15:00−1wnw477791 0.1 1000987
18:00−3nw2389100 0.1 100059
21:00−6nnw2493100 0.1 1001109
5 march, fri
fri500:00−8nnw239397 0.0 100245
03:00−10nnw229549 0.0 100329
06:00−11nw12950 0.0 100421
09:00−8wnw12910 0.0 1006105
12:00−4wsw129079 0.3 1006280
15:00−4nw468489 1.3 1008813
18:00−7wnw379082 0.1 1009177
21:00−9wnw379276 0.2 1012188
6 march, sat
sat600:00−11wnw23940 0.0 101369
03:00−11wnw259623 0.0 1015138
06:00−13nnw379458 0.0 1015216
09:00−14nnw368429 0.0 1016254
12:00−9nw467722 0.0 1016893
15:00−8nw367561 0.1 10161089
18:00−10w238898 0.1 101583
21:00−12wsw389189 0.1 1014194
7 march, sun
sun700:00−12sw399219 0.0 1011269
03:00−10ssw5139051 0.0 1007629
06:00−7sw71492100 0.7 10031065
09:00−5sw81592100 2.1 9971224
12:00−2wsw81687100 1.0 9941342
15:00−4w3882100 3.3 993791
18:00−6w3687100 0.2 992277
21:00−10wsw378699 0.8 994141